Regional Weather Roundup
Issued by NWS

Home | Current Version | Previous Version | Text Only | Print | Product List | Glossary Off
Versions: 1 2 3 4 5 6 7 8 9 10 11 12 13 14 15 16 17 18 19 20 21 22 23 24 25 26 27 28 29 30 31 32 33 34 35 36 37 38 39 40 41 42 43 44 45 46 47 48 49 50

000
ASUS43 KIND 171509
RWRIN

WEATHER ROUNDUP FOR INDIANA
NATIONAL WEATHER SERVICE INDIANAPOLIS IN
1100 AM EDT WED SEP 17 2014

NOTE: "FAIR" INDICATES FEW OR NO CLOUDS BELOW 12,000 FEET WITH NO
SIGNIFICANT WEATHER AND/OR OBSTRUCTIONS TO VISIBILITY.

* - STATION DOES NOT REPORT WEATHER SUCH AS PRECIPITATION OR FOG.

+ - STATION NOT QUALITY CONTROLLED BY THE NATIONAL WEATHER SERVICE.
    USE DATA WITH CAUTION...ESPECIALLY DEWPOINT AND RELATIVE
    HUMIDITY OBSERVATIONS.

INZ001>003-010>013-019-020-171600-
NORTHWEST INDIANA

CITY           SKY/WX    TMP DP  RH WIND       PRES   REMARKS
GARY /AIRPORT/ MOSUNNY   61  48  63 CALM      30.05S
KNOX *+        SUNNY     58  50  75 CALM      30.03F
LA PORTE +     SUNNY     58  49  72 SW3       30.05S
MICHIGAN CITY+ SUNNY     61  48  63 S6        30.04F
MONTICELLO +   SUNNY     58  53  84 CALM      30.04S
RENSSELAER +   SUNNY     61  55  82 S5        30.05S
VALPARAISO     SUNNY     59  50  72 CALM      30.05S

$$

LMZ046-743>745-171600-
SOUTHERN LAKE MICHIGAN

STATION/POSITION TIME  TEMP WIND        PRES
                       AIR  DIR/SP/G
                 (UTC) (F)  (DEG/KT/KT) (MB)
MICHIGAN CITY    1500   59  190/  2/  3   N/A

$$

INZ004-005-014>016-021>024-171600-
NORTH CENTRAL INDIANA

CITY           SKY/WX    TMP DP  RH WIND       PRES   REMARKS
ELKHART        SUNNY     59  46  63 S5        30.05F
GOSHEN         SUNNY     62  49  62 SE3       30.05F
LOGANSPORT +   SUNNY     59  52  77 CALM      30.06S
PERU/GRISSOM   SUNNY     59  55  86 CALM      30.05F
ROCHESTER +    SUNNY     63  52  67 CALM      30.05F
SOUTH BEND     SUNNY     61  48  62 S6        30.05F
WARSAW +       PTSUNNY   57  50  77 CALM      30.05F

$$

INZ006>009-017-018-025>027-171600-
NORTHEAST INDIANA

CITY           SKY/WX    TMP DP  RH WIND       PRES   REMARKS
ANGOLA *+      SUNNY     61  46  59 S5        30.05F
AUBURN +       MOSUNNY   61  45  55 CALM      30.06F
FORT WAYNE     PTSUNNY   57  53  86 CALM      30.07F
HUNTINGTON +   CLOUDY    56  54  95 CALM      30.05F

$$

INZ028-029-035-036-043>045-051>053-171600-
WEST CENTRAL INDIANA

CITY           SKY/WX    TMP DP  RH WIND       PRES   REMARKS
GREENCASTLE +  SUNNY     59  52  77 CALM      30.06S
LAFAYETTE      SUNNY     57  53  86 CALM      30.05F
TERRE HAUTE    SUNNY     60  52  74 MISG      30.05F

$$

INZ030>032-037>040-046>048-054>057-064-065-171600-
CENTRAL INDIANA

CITY           SKY/WX    TMP DP  RH WIND       PRES   REMARKS
ANDERSON       SUNNY     57  54  88 CALM      30.07F
CP ATTERBURY + MOSUNNY   55  54  94 CALM      30.08S
COLUMBUS       MOSUNNY   54  54 100 CALM      30.07F
FRANKFORT +    SUNNY     60  53  79 CALM      30.06F
INDIANAPOLIS   MOSUNNY   59  50  72 CALM      30.05F
-EAGLE CREEK   SUNNY     61  50  67 CALM      30.05F
KOKOMO *+      SUNNY     61  52  72 CALM      30.05F
MARION +       SUNNY     56  54  92 W3        30.06F
MT COMFORT *+  SUNNY     59  52  77 CALM      30.06F
SHELBYVILLE    SUNNY     60  52  74 CALM      30.06F
ZIONSVILLE +   SUNNY     60  52  75 CALM      30.06F

$$

INZ033-034-041-042-049-050-058-059-171600-
EAST CENTRAL INDIANA

CITY           SKY/WX    TMP DP  RH WIND       PRES   REMARKS
MUNCIE         SUNNY     59  50  72 NW3       30.06F

$$

INZ060-061-067>069-081>083-085>088-171600-
SOUTHWEST INDIANA

CITY           SKY/WX    TMP DP  RH WIND       PRES   REMARKS
EVANSVILLE     MOSUNNY   60  52  74 E7        30.06S
WASHINGTON +   SUNNY     59  52  77 CALM      30.07R

$$

INZ062-063-066-070>080-084-089>092-171600-
SOUTH CENTRAL AND SOUTHEAST INDIANA

CITY           SKY/WX    TMP DP  RH WIND       PRES   REMARKS
BEDFORD +      PTSUNNY   59  50  72 CALM      30.07
BLOOMINGTON    SUNNY     59  49  69 SE6       30.07S
NORTH VERNON + CLOUDY    55  55 100 E3        30.08
SEYMOUR +      CLOUDY    55  55 100 CALM      30.07S

$$




USA.gov is the U.S. government's official web portal to all federal, state and local government web resources and services.